Regional Weather Roundup
Issued by NWS

Home | Current Version | Previous Version | Text Only | Print | Product List | Glossary On
Versions: 1 2 3 4 5 6 7 8 9 10 11 12 13 14 15 16 17 18 19 20 21 22 23 24 25 26 27 28 29 30 31 32 33 34 35 36 37 38 39 40 41 42 43 44 45 46 47 48 49 50
000
ASCA42 TJSJ 200410
RWRPR
PUERTO RICO/U.S. VIRGIN ISLANDS HOURLY WEATHER ROUNDUP
NATIONAL WEATHER SERVICE SAN JUAN PR
1200 AM AST SUN AUG 20 2017

PRZ001>002-007>008-010-200500-
PUERTO RICO

CITY           SKY/WX    TMP DP  RH WIND       PRES   REMARKS
SAN JUAN LMM   PTCLDY    81  79  94 CALM      29.92F
PONCE          PTCLDY    79  77  94 NE6       29.98R
AGUADILLA      CLEAR     79  75  89 E14       29.94S
CEIBA          PTCLDY    82  79  89 E7        29.95F HX  93
$$

VIZ001>002-200500-
U.S. VIRGIN ISLANDS

CITY           SKY/WX    TMP DP  RH WIND       PRES   REMARKS
CHARLOTTE AMA  CLEAR     82  79  89 E7        29.92F HX  93
CHRISTIANSTED  PTCLDY    81  79  94 NE5       29.93F
$$

HOURLY WEATHER ROUNDUP FOR THE NEWS MEDIA

CITY           SKY/WX    TMP DP  RH WIND       PRES   REMARKS
ORLANDO        CLEAR     82  78  88 S7        30.01R HX  91
NEW YORK       PTCLDY    77  70  79 S7        29.89F
NEWARK         MOCLDY    79  65  62 SW13      29.89R
CHICAGO        CLEAR     71  54  54 SE3       29.98R
HARTFORD       CLEAR     71  66  84 W7        29.87R
BOSTON         CLOUDY    69  65  86 S7        29.84S
DALLAS         MOCLDY    89  70  53 SE14      29.96R HX  94
PHILADELPHIA   CLOUDY    76  60  57 W9        29.95R
LOS ANGELES    PTCLDY    67  61  81 W14       29.93R
WASHINGTON DC  PTCLDY    67  67 100 CALM      29.99R


USA.gov is the U.S. government's official web portal to all federal, state and local government web resources and services.